TimeMDT,TemperatureF,Dew PointF,Humidity,Sea Level PressureIn,VisibilityMPH,Wind Direction,Wind SpeedMPH,Gust SpeedMPH,PrecipitationIn,Events,Conditions,WindDirDegrees,DateUTC
12:51 AM,30.9,26.1,82,30.13,10.0,Calm,Calm,-,N/A,,Clear,0,2013-10-06 06:51:00
1:51 AM,30.9,25.0,79,30.13,10.0,Calm,Calm,-,N/A,,Clear,0,2013-10-06 07:51:00
2:51 AM,33.1,27.0,78,30.12,10.0,NNW,3.5,-,N/A,,Clear,340,2013-10-06 08:51:00
3:51 AM,36.0,28.9,76,30.11,10.0,Calm,Calm,-,N/A,,Clear,0,2013-10-06 09:51:00
4:51 AM,36.0,28.9,76,30.11,10.0,West,8.1,-,N/A,,Clear,280,2013-10-06 10:51:00
5:51 AM,39.0,32.0,76,30.11,10.0,WSW,12.7,-,N/A,,Clear,250,2013-10-06 11:51:00
6:51 AM,37.9,30.9,76,30.15,10.0,West,8.1,-,N/A,,Clear,280,2013-10-06 12:51:00
7:51 AM,37.9,32.0,79,30.16,10.0,Calm,Calm,-,N/A,,Clear,0,2013-10-06 13:51:00
8:51 AM,45.0,35.1,68,30.14,10.0,West,8.1,-,N/A,,Clear,260,2013-10-06 14:51:00
9:51 AM,50.0,35.1,57,30.16,10.0,West,12.7,-,N/A,,Clear,270,2013-10-06 15:51:00
10:51 AM,55.0,36.0,49,30.15,10.0,West,8.1,-,N/A,,Clear,280,2013-10-06 16:51:00
11:51 AM,60.1,36.0,41,30.12,10.0,WNW,12.7,-,N/A,,Clear,300,2013-10-06 17:51:00
12:51 PM,62.1,35.1,37,30.11,10.0,WNW,17.3,25.3,N/A,,Clear,300,2013-10-06 18:51:00
1:51 PM,66.9,35.1,31,30.07,10.0,WNW,16.1,-,N/A,,Clear,300,2013-10-06 19:51:00
2:51 PM,66.9,35.1,31,30.04,10.0,WNW,15.0,24.2,N/A,,Clear,290,2013-10-06 20:51:00
3:51 PM,66.0,34.0,30,30.04,10.0,WNW,19.6,25.3,N/A,,Clear,290,2013-10-06 21:51:00
4:51 PM,66.0,35.1,32,30.03,10.0,WNW,13.8,-,N/A,,Clear,300,2013-10-06 22:51:00
5:51 PM,63.0,37.0,38,30.03,10.0,West,8.1,-,N/A,,Clear,270,2013-10-06 23:51:00
6:51 PM,55.9,37.9,51,30.04,10.0,WSW,10.4,-,N/A,,Clear,240,2013-10-07 00:51:00
7:51 PM,52.0,37.0,57,30.05,10.0,West,6.9,-,N/A,,Clear,280,2013-10-07 01:51:00
8:51 PM,48.0,37.0,66,30.05,10.0,WSW,6.9,-,N/A,,Clear,250,2013-10-07 02:51:00
9:51 PM,46.9,37.0,68,30.04,10.0,West,3.5,-,N/A,,Clear,280,2013-10-07 03:51:00
10:51 PM,44.1,35.1,71,30.02,10.0,Calm,Calm,-,N/A,,Clear,0,2013-10-07 04:51:00
11:51 PM,39.9,34.0,79,30.01,10.0,ESE,3.5,-,N/A,,Clear,120,2013-10-07 05:51:00